ES'HAIL 1

Last updated on Mon Sep 21 2026 00:02:59 GMT+0000 (Coordinated Universal Time)

1 39233U 13044A 26263.21114086 .00000139 00000+0 00000+0 0 9995 2 39233 0.0509 3.4761 0002310 170.3811 286.7676 1.00274617 47588
UTC large
Height (km)
Speed (km/s)
/
Latitude / Longitude
Inclination (degrees)
Orbital Period (minutes)
Azimuth
Elevation
Range (km)
Doppler Factor

Next 0 passes for location: London (51.5072 / 0.1276)

No passes found over London.
ES'HAIL 1